This demonstration page uses our WeatherBlox Daily Observations layout. Learn more.

38.88101, -77.10428

Hourly Observations for October 10, 2017

Temp ( °F °C ) Dew Point ( °F °C ) Humidity (%) Winds ( mph kmh ) Pressure ( in mb ) Visibility ( mi km ) Precip ( " mm )
12:52 am 00:52 Mostly Clear 76 24.4 74 23.3 94 94 Calm 30.01 1016 10 16.0934 0 0
1:52 am 01:52 Mostly Clear 76 24.4 74 23.3 94 94 N 5 7 30.01 1016 10 16.0934 0 0
2:52 am 02:52 Mostly Clear 75 23.9 71 21.7 88 88 NW 7 11 30.01 1016 10 16.0934 0 0
3:52 am 03:52 Mostly Cloudy 74 23.3 72 22.2 94 94 Calm 30.01 1016 10 16.0934 0 0
4:52 am 04:52 Partly Cloudy 73 22.8 71 21.7 94 94 Calm 30.04 1017 10 16.0934 0 0
5:52 am 05:52 Partly Cloudy 73 22.8 71 21.7 94 94 Calm 30.04 1017 10 16.0934 0 0
6:52 am 06:52 Mostly Cloudy 73 22.8 71 21.7 94 94 NNE 3 6 30.06 1018 10 16.0934 0 0
7:52 am 07:52 Mostly Cloudy 74 23.3 71 21.7 91 91 N 3 6 30.08 1019 10 16.0934 0 0
8:52 am 08:52 Mostly Cloudy 76 24.4 72 22.2 88 88 Calm 30.1 1019 10 16.0934 0 0
9:52 am 09:52 Mostly Cloudy 79 26.1 71 21.7 77 77 Calm 30.11 1020 10 16.0934 0 0
10:52 am 10:52 Mostly Cloudy 80 26.7 70 21.1 71 71 ENE 3 6 30.1 1019 10 16.0934 0 0
11:52 am 11:52 Partly Cloudy 82 27.8 69 20.6 65 65 Calm 30.09 1019 10 16.0934 0 0
12:52 pm 12:52 Partly Cloudy 84 28.9 69 20.6 61 61 Calm 30.09 1019 10 16.0934 0 0
1:52 pm 13:52 Partly Cloudy 84 28.9 68 20 59 59 Calm 30.07 1018 10 16.0934 0 0
2:52 pm 14:52 Mostly Cloudy 85 29.4 70 21.1 61 61 S 5 7 30.05 1018 10 16.0934 0 0
3:52 pm 15:52 Mostly Cloudy 84 28.9 68 20 59 59 Calm 30.05 1018 10 16.0934 0 0
4:52 pm 16:52 Mostly Cloudy 85 29.4 68 20 57 57 Calm 30.04 1017 10 16.0934 0 0
5:52 pm 17:52 Mostly Cloudy 83 28.3 70 21.1 65 65 SE 8 13 30.04 1017 10 16.0934 0 0
6:52 pm 18:52 Mostly Cloudy 80 26.7 72 22.2 76 76 SE 3 6 30.06 1018 10 16.0934 0 0
7:52 pm 19:52 Mostly Cloudy 79 26.1 71 21.7 77 77 Calm 30.08 1019 10 16.0934 0 0
8:52 pm 20:52 Mostly Cloudy 79 26.1 71 21.7 77 77 Calm 30.08 1019 10 16.0934 0 0
9:52 pm 21:52 Mostly Cloudy 77 25 71 21.7 82 82 ENE 9 15 30.09 1019 10 16.0934 0 0
10:52 pm 22:52 Mostly Cloudy 76 24.4 71 21.7 85 85 NE 7 11 30.09 1019 10 16.0934 0 0
11:52 pm 23:52 Cloudy 76 24.4 71 21.7 85 85 NE 7 11 30.08 1019 10 16.0934 0 0

Powered by AerisWeather